User: anonymous   Login
Location: State Camp
(41.2367°N, 77.7828°W)
Time: 10:44:45
(UTC-04:00)
Language:

Lacrosse 5 - Orbit

View from above orbital plane
View from above orbital plane
View from above satellite
View from above satellite

Ground track
Ground track

The orbit data is extracted from the following two-line orbital elements,

1 28646U 05016A   17256.82123297 0.00000000  00000-0  00000-0 0    06
2 28646  57.0100 155.6416 0003000 151.7744 208.2256 14.51913532    00
Epoch (UTC): 13 September 2017 19:42:34
Eccentricity: 0.0003000
inclination: 57.0100°
perigee height: 717 km
apogee height: 721 km
right ascension of ascending node: 155.6416°
argument of perigee: 151.7744°
revolutions per day: 14.51913532
mean anomaly at epoch: 208.2256°
orbit number at epoch: 0

The dashed part of the orbit path shows where the satellite is in the earth's shadow,  

DLR